Chadron, NE

12:29 AM MDT on May 25, 2017 (GMT -0600)
Chadron Municipal

Weather History for KCDR - April, 2013

Change the Weather History Date:

Tuesday, April 16, 2013

  Actual Average Record
Temperature  
Mean Temperature 28 °F 45 °F  
Max Temperature 30 °F 60 °F 85 °F (1958)
Min Temperature 26 °F 30 °F 7 °F (1951)
Degree Days  
Heating Degree Days 37 20  
Month to date heating degree days 461 361  
Since 1 July heating degree days 6230 6518  
Cooling Degree Days 0 0  
Month to date cooling degree days 0 0  
Year to date cooling degree days 0 0  
Moisture  
Dew Point 25 °F    
Average Humidity 78    
Maximum Humidity 92    
Minimum Humidity 63    
Precipitation  
Precipitation 0.02 in 0.07 in 1.20 in (1976)
Month to date precipitation 0.15 0.89  
Year to date precipitation 1.69 3.09  
Sea Level Pressure  
Sea Level Pressure 30.17 in    
Wind  
Wind Speed 11 mph (ENE)    
Max Wind Speed 18 mph    
Max Gust Speed 21 mph    
Visibility 2 miles    
Events Fog , Rain , Snow    
T = Trace of Precipitation, MM = Missing Value Source: NWS Daily Summary

Daily Weather History Graph

Daily Weather History Graph

Search for Another Location

Airport or City:

Trip Planner

Search our weather history database for the weather conditions in past years. The results will help you decide how hot, cold, wet, or windy it might be!

Date:

Astronomy

Apr. 16, 2013 Rise Set
Actual Time 6:08 AM MDT 7:36 PM MDT
Civil Twilight 5:39 AM MDT 8:05 PM MDT
Nautical Twilight 5:03 AM MDT 8:41 PM MDT
Astronomical Twilight 4:25 AM MDT 9:19 PM MDT
Moon 10:25 AM MDT (4/16) 12:38 AM MDT (4/16)
Length of Visible Light 14h 26m
Length of Day
13h 27m
Waxing Crescent, 34% of the Moon is Illuminated
Apr 16
Waxing Crescent
Apr 18
First Quarter
Apr 25
Full
May 2
Last Quarter
May 9
New

Hourly Weather History & Observations

Time (MDT) Temp. Windchill Dew Point Humidity Pressure Visibility Wind Dir Wind Speed Gust Speed Precip Events Conditions
12:53 AM 30.0 °F 23.2 °F 21.9 °F 72% 30.18 in 10.0 mi East 6.9 mph - N/A   Overcast
1:53 AM 30.0 °F 26.5 °F 21.0 °F 69% 30.21 in 10.0 mi East 3.5 mph - N/A   Overcast
2:53 AM 30.0 °F 25.2 °F 19.9 °F 66% 30.20 in 10.0 mi East 4.6 mph - N/A   Overcast
3:53 AM 28.9 °F 22.8 °F 21.0 °F 72% 30.21 in 10.0 mi East 5.8 mph - N/A   Overcast
4:53 AM 28.9 °F 22.8 °F 21.0 °F 72% 30.21 in 10.0 mi East 5.8 mph - N/A   Overcast
6:11 AM 26.6 °F 17.5 °F 21.2 °F 80% 30.11 in 1.8 mi ESE 9.2 mph - 0.00 in Snow Light Snow
6:27 AM 26.6 °F 18.2 °F 23.0 °F 86% 30.11 in 0.8 mi ESE 8.1 mph - 0.00 in Snow Light Snow
6:40 AM 26.6 °F 16.8 °F 23.0 °F 86% 30.11 in 1.0 mi East 10.4 mph - 0.00 in Snow Light Snow
6:50 AM 26.6 °F 16.8 °F 23.0 °F 86% 30.11 in 0.8 mi East 10.4 mph - 0.00 in Snow Light Snow
6:53 AM 26.1 °F 16.2 °F 23.0 °F 88% 30.22 in 0.8 mi ESE 10.4 mph - 0.00 in Snow Light Snow
7:53 AM 27.0 °F 18.0 °F 24.1 °F 89% 30.25 in 0.5 mi East 9.2 mph - 0.00 in Fog , Snow Snow
8:00 AM 26.6 °F 17.5 °F 24.8 °F 93% 30.13 in 0.2 mi East 9.2 mph - 0.00 in Fog , Snow Snow
8:15 AM 26.6 °F 17.5 °F 24.8 °F 93% 30.13 in 0.5 mi East 9.2 mph - 0.00 in Fog , Snow Light Snow
8:35 AM 26.6 °F 15.7 °F 24.8 °F 93% 30.12 in 0.5 mi ENE 12.7 mph - 0.00 in Fog , Snow Light Snow
8:53 AM 27.0 °F 16.1 °F 24.1 °F 89% 30.24 in 0.5 mi ENE 12.7 mph - 0.00 in Fog , Snow Light Snow
9:17 AM 28.4 °F 18.5 °F 24.8 °F 86% 30.13 in 0.5 mi East 11.5 mph - 0.00 in Fog , Snow Snow
9:26 AM 26.6 °F 16.8 °F 24.8 °F 93% 30.14 in 0.2 mi East 10.4 mph - 0.00 in Fog , Snow Snow
9:30 AM 26.6 °F 16.8 °F 24.8 °F 93% 30.14 in 0.2 mi East 10.4 mph - 0.00 in Fog , Snow Snow
9:53 AM 27.0 °F 16.7 °F 24.1 °F 89% 30.25 in 0.2 mi East 11.5 mph - 0.00 in Fog , Snow Heavy Snow
10:09 AM 26.6 °F 16.8 °F 24.8 °F 93% 30.13 in 0.2 mi East 10.4 mph - 0.00 in Fog , Snow Snow
10:30 AM 26.6 °F 14.7 °F 24.8 °F 93% 30.13 in 0.2 mi ENE 15.0 mph - 0.00 in Fog , Snow Snow
10:44 AM 26.6 °F 14.7 °F 24.8 °F 93% 30.13 in 0.5 mi ENE 15.0 mph - 0.00 in Fog , Snow Light Snow
10:53 AM 27.0 °F 14.3 °F 24.1 °F 89% 30.25 in 1.0 mi ENE 17.3 mph - 0.00 in Snow Light Snow
11:29 AM 28.4 °F 17.5 °F 24.8 °F 86% 30.12 in 2.0 mi ENE 13.8 mph - 0.01 in Snow Light Snow
11:48 AM 28.4 °F 18.0 °F 23.0 °F 80% 30.13 in 3.0 mi ENE 12.7 mph - 0.01 in Snow Light Snow
11:53 AM 28.0 °F 16.1 °F 23.0 °F 81% 30.25 in 3.0 mi ENE 16.1 mph - 0.01 in Snow Light Snow
12:25 PM 28.4 °F 16.6 °F 23.0 °F 80% 30.12 in 2.5 mi East 16.1 mph - 0.00 in Snow Light Snow
12:53 PM 28.0 °F 15.3 °F 23.0 °F 81% 30.23 in 2.5 mi East 18.4 mph - 0.01 in Snow Light Snow
1:16 PM 28.4 °F 15.8 °F 23.0 °F 80% 30.11 in 3.0 mi East 18.4 mph - 0.00 in Snow Light Snow
1:24 PM 28.4 °F 16.2 °F 23.0 °F 80% 30.11 in 2.5 mi East 17.3 mph - 0.00 in Snow Light Snow
1:53 PM 28.0 °F 16.5 °F 24.1 °F 85% 30.22 in 2.5 mi ENE 15.0 mph - 0.00 in Snow Light Snow
2:01 PM 28.4 °F 17.5 °F 24.8 °F 86% 30.10 in 3.0 mi ENE 13.8 mph - 0.00 in Snow Light Snow
2:53 PM 28.9 °F 17.7 °F 24.1 °F 82% 30.20 in 4.0 mi ENE 15.0 mph - 0.00 in   Haze
3:53 PM 28.9 °F 18.2 °F 25.0 °F 85% 30.22 in 4.0 mi East 13.8 mph - N/A   Overcast
4:36 PM 28.4 °F 19.7 °F 24.8 °F 86% 30.11 in 2.0 mi ENE 9.2 mph - 0.00 in   Overcast
4:45 PM 28.4 °F 18.0 °F 24.8 °F 86% 30.11 in 1.5 mi ENE 12.7 mph - 0.00 in   Overcast
4:53 PM 28.9 °F 18.6 °F 25.0 °F 85% 30.23 in 1.2 mi ENE 12.7 mph - 0.00 in Rain Light Freezing Rain
5:28 PM 28.4 °F 19.1 °F 26.6 °F 93% 30.12 in 1.2 mi NE 10.4 mph - 0.00 in Rain Light Freezing Rain
5:41 PM 28.4 °F 18.0 °F 26.6 °F 93% 30.13 in 1.2 mi NE 12.7 mph - 0.00 in Rain Light Freezing Rain
5:53 PM 28.0 °F 18.1 °F 26.1 °F 92% 30.26 in 1.2 mi NE 11.5 mph - 0.00 in Rain Light Freezing Rain
6:45 PM 28.4 °F 18.0 °F 26.6 °F 93% 30.14 in 1.5 mi NE 12.7 mph - 0.00 in Snow Light Snow
6:48 PM 28.4 °F 18.0 °F 26.6 °F 93% 30.14 in 1.2 mi NE 12.7 mph - 0.00 in Snow Light Snow
6:53 PM 28.0 °F 17.5 °F 26.1 °F 92% 30.27 in 0.8 mi NE 12.7 mph - 0.00 in Snow Light Snow
7:06 PM 28.4 °F 19.1 °F 26.6 °F 93% 30.13 in 1.0 mi ENE 10.4 mph - 0.00 in Snow Light Snow
7:11 PM 28.4 °F 17.5 °F 26.6 °F 93% 30.12 in 3.0 mi ENE 13.8 mph - 0.00 in   Overcast
7:34 PM 28.4 °F 19.1 °F 26.6 °F 93% 30.13 in 2.5 mi ENE 10.4 mph - 0.00 in Snow Light Snow
7:51 PM 28.4 °F 18.0 °F 26.6 °F 93% 30.14 in 1.0 mi ENE 12.7 mph - 0.00 in Snow Light Snow
7:53 PM 28.0 °F 18.1 °F 26.1 °F 92% 30.26 in 1.0 mi ENE 11.5 mph - 0.00 in Snow Light Snow
8:06 PM 28.4 °F 18.5 °F 26.6 °F 93% 30.14 in 2.0 mi ENE 11.5 mph - 0.00 in   Overcast
8:13 PM 28.4 °F 17.5 °F 26.6 °F 93% 30.14 in 3.0 mi NE 13.8 mph - 0.00 in   Overcast
8:20 PM 28.4 °F 18.0 °F 26.6 °F 93% 30.14 in 5.0 mi NE 12.7 mph - 0.00 in   Overcast
8:51 PM 28.4 °F 18.5 °F 26.6 °F 93% 30.15 in 1.5 mi NE 11.5 mph - 0.00 in Snow Light Snow
8:53 PM 28.0 °F 18.1 °F 26.1 °F 92% 30.28 in 1.0 mi NE 11.5 mph - 0.00 in Snow Light Snow
9:00 PM 28.4 °F 17.5 °F 26.6 °F 93% 30.16 in 0.5 mi NE 13.8 mph - 0.00 in Fog , Snow Snow
9:14 PM 28.4 °F 17.5 °F 26.6 °F 93% 30.15 in 0.5 mi NE 13.8 mph - 0.00 in Fog , Snow Snow
9:27 PM 28.4 °F 18.0 °F 26.6 °F 93% 30.15 in 0.8 mi NE 12.7 mph - 0.00 in Snow Light Snow
9:40 PM 28.4 °F 18.0 °F 26.6 °F 93% 30.16 in 1.0 mi NE 12.7 mph - 0.00 in Snow Light Snow
9:53 PM 28.0 °F 17.5 °F 26.1 °F 92% 30.28 in 1.2 mi NE 12.7 mph - 0.00 in Snow Light Snow
10:21 PM 28.4 °F 19.1 °F 26.6 °F 93% 30.18 in 0.5 mi NE 10.4 mph - 0.00 in Fog , Snow Snow
10:34 PM 28.4 °F 19.1 °F 26.6 °F 93% 30.18 in 0.5 mi NE 10.4 mph - 0.00 in Fog , Snow Snow
10:53 PM 28.0 °F 18.1 °F 26.1 °F 92% 30.30 in 0.8 mi NNE 11.5 mph - 0.00 in Snow Light Snow
11:16 PM 28.4 °F 18.0 °F 26.6 °F 93% 30.17 in 0.2 mi NE 12.7 mph - 0.00 in Fog , Snow Snow
11:34 PM 28.4 °F 19.1 °F 26.6 °F 93% 30.18 in 0.5 mi NNE 10.4 mph - 0.00 in Fog , Snow Snow
11:53 PM 28.0 °F 19.3 °F 26.1 °F 92% 30.31 in 0.5 mi NNE 9.2 mph - 0.00 in Fog , Snow Snow
11:58 PM 28.4 °F 18.5 °F 26.6 °F 93% 30.18 in 0.8 mi NE 11.5 mph - 0.00 in Snow Light Snow